Location: Binos
(42.9008°N, 0.6175°E)
Time: 10:17:56
(UTC+00:00)

Daily predictions for brighter satellites

Satellite Brightness Start Highest point End
(mag) Time Altitude Azimuth Time Altitude Azimuth Time Altitude Azimuth
IRS-1A Rocket 4.4 19:49:25 10° SSE 19:54:53 62° ENE 20:00:19 10° N
CZ-4 R/B 4.4 19:53:27 10° SW 19:55:50 15° W 19:58:15 10° NW
RESURS DK-1 4.2 19:57:23 10° SE 19:59:14 13° ESE 20:01:03 10° ENE
BREEZE-M DEB (TANK) 3.4 19:57:46 10° NW 20:00:08 30° NNE 20:04:29 10° E
Cosmos 44 Rocket 4.3 19:55:52 10° S 20:00:16 29° ESE 20:04:44 10° NE
Cosmos 1408 2.6 19:56:49 10° S 20:00:28 88° E 20:04:06 10° N
Tsikada Rocket 4.4 19:55:16 10° SSW 20:01:26 72° W 20:07:42 10° N
Ariane Rocket 3.1 19:58:45 10° SSE 20:03:47 67° ENE 20:08:50 10° N
MOS 1 4.3 20:03:04 10° SSE 20:08:45 83° ENE 20:14:26 10° NNW
Cosmos 1818 4.0 20:04:19 10° SW 20:09:44 71° NW 20:15:13 10° NNE
Cosmos 1437 3.3 20:09:04 10° N 20:11:36 31° ENE 20:13:57 11° SE
OAO 2 Rocket 4.2 20:08:59 10° WSW 20:13:28 33° S 20:17:44 11° ESE
Cosmos 1633 4.1 20:13:08 10° SE 20:15:36 19° E 20:18:11 10° NE
Cosmos 1697 Rocket 3.1 20:11:48 10° NNW 20:17:20 50° ENE 20:22:30 12° SE
Helios 1A Rocket 4.2 20:15:44 10° S 20:19:32 40° W 20:23:22 10° NNW
ISS -1.1 20:18:06 10° NW 20:20:32 18° N 20:22:59 10° NE
ERS-2 2.1 20:17:52 10° NNE 20:21:32 86° ESE 20:25:10 10° SSW
Cosmos 2082 Rocket 2.8 20:18:34 10° SSE 20:23:35 35° ESE 20:28:39 10° NE
Cosmos 2221 2.9 20:20:55 10° N 20:25:04 45° ENE 20:28:47 12° SSE
Cosmos 1833 Rocket 2.6 20:22:06 10° SSW 20:27:43 78° ESE 20:33:23 10° NNE
USA 307 3.6 20:25:40 10° WNW 20:29:44 45° SW 20:33:17 13° SSE
SPOT 3 Rocket 3.6 20:26:52 10° SSE 20:32:02 66° ENE 20:37:13 10° N
Terra 3.7 20:29:19 10° E 20:32:07 16° ENE 20:34:55 10° NNE
Cosmos 2279 Rocket 4.0 20:25:55 10° N 20:32:08 81° E 20:38:19 10° S
BREEZE-M DEB (TANK) 3.1 20:29:46 10° SSW 20:32:53 52° SE 20:42:08 10° ENE
Cosmos 1242 Rocket 2.6 20:30:46 10° NNW 20:34:23 81° W 20:37:55 10° S
NOSS 3-4 (A) 3.8 20:30:52 10° SW 20:36:38 67° NW 20:42:51 10° NNE
NOSS 3-4 (C) 3.8 20:30:59 10° SW 20:36:44 68° NW 20:42:56 10° NNE
Cosmos 773 Rocket 4.1 20:32:42 10° S 20:37:46 54° ESE 20:42:50 10° NNE
USA 276 4.5 20:37:03 10° WNW 20:39:41 23° N 20:42:17 10° NE
IGS 5A 3.6 20:38:34 10° S 20:42:42 75° W 20:46:52 10° NNW
ATLAS 2AS CENTAUR R/B 3.0 20:37:34 10° SSW 20:45:28 79° ESE 20:53:16 10° NE
USA 305 4.3 20:42:48 10° WNW 20:46:28 29° SW 20:49:27 14° S
USA 308 4.1 20:42:41 10° WNW 20:46:30 32° SW 20:49:28 15° S
Cosmos 1606 2.8 20:45:14 10° N 20:48:58 56° E 20:51:16 21° SSE
COSMOS 2406 3.4 20:44:08 10° SSW 20:49:48 79° WNW 20:55:32 10° NNE
Cosmos 2369 3.8 20:45:56 10° NNW 20:51:34 66° ENE 20:55:33 20° SE
ERBS 3.2 20:50:05 10° NNW 20:53:06 36° NE 20:54:49 20° E
Centaur D AC-28 4.5 20:50:33 10° SW 20:56:35 36° SSE 21:25:19 10° E
Landsat 7 4.2 20:52:32 11° S 20:57:07 64° WSW 21:01:52 10° NNW
Cosmos 2151 3.6 20:57:41 24° SE 20:59:36 37° E 21:03:31 10° NNE
Nadezhda 4 Rocket 3.9 20:54:40 10° S 21:00:45 70° E 21:06:56 10° NNE
Cosmos 1980 Rocket 2.4 20:57:48 10° NNW 21:03:22 60° ENE 21:06:48 23° SE
GP-B 3.9 20:59:24 10° NNE 21:03:27 33° E 21:05:05 25° SE
ERS-1 Rocket 3.5 21:00:53 22° SE 21:03:40 43° ENE 21:08:25 10° N
USA 267 3.4 20:57:56 10° ENE 21:04:13 48° SE 21:10:29 10° SSW
Cosmos 1842 Rocket 3.8 20:59:48 10° NNW 21:04:16 71° W 21:07:48 16° S
Spot 2 Rocket 3.6 21:01:00 22° SSE 21:04:18 63° ENE 21:09:22 10° N
ATLAS 3B R/B 3.3 20:59:02 10° NNW 21:05:56 51° NE 21:11:03 20° ESE
CENTAUR R/B 4.5 20:59:55 10° NW 21:07:16 34° WSW 21:14:57 10° S
Cosmos 2058 4.2 21:03:28 10° SSW 21:07:25 41° WNW 21:11:25 10° N
Cosmos 2322 Rocket 4.1 21:06:27 10° N 21:10:13 18° NE 21:13:47 11° E
Meteor 2-19 Rocket 4.5 21:10:39 18° SSE 21:15:05 61° E 21:21:02 10° NNE
Cosmos 1076 Rocket 3.6 21:12:40 14° SSW 21:16:20 80° W 21:20:42 10° N
Cosmos 1538 Rocket 4.0 21:12:59 15° S 21:17:11 61° ESE 21:22:19 10° NNE
BREEZE-M DEB (TANK) 3.9 21:15:13 10° W 21:17:44 27° NNW 21:19:23 10° NE
Resurs 01 Rocket 3.2 21:16:31 10° SSW 21:20:25 31° W 21:24:22 10° NNW
Cosmos 158 Rocket 4.2 21:19:19 27° SSE 21:21:43 47° ESE 21:26:42 10° NNE
Cosmos 2098 Rocket 2.7 21:21:49 26° SSW 21:23:13 54° W 21:26:20 10° N
SPOT 1/Viking Rocket 4.2 21:26:32 17° S 21:30:21 50° W 21:35:25 10° NNW
H-2A R/B 4.3 21:30:17 10° NNE 21:34:03 32° E 21:34:06 32° E
SL-16 R/B 3.3 21:30:29 10° N 21:35:35 33° NE 21:38:08 23° E
RESURS DK-1 2.9 21:32:37 10° SW 21:36:43 58° WNW 21:40:50 10° NNE
USA 234 4.2 21:31:41 11° E 21:37:33 41° NNE 21:43:37 10° NW
Cosmos 1271 Rocket 2.9 21:38:11 10° N 21:42:07 56° ENE 21:42:41 51° ESE
ARIANE 5 R/B 3.1 21:45:54 32° SSW 21:47:46 57° W 21:52:13 10° NNW
SPOT 5 2.6 21:46:28 41° S 21:47:52 72° WSW 21:52:13 10° NNW
Cosmos 304 Rocket 3.9 21:46:58 10° NNW 21:51:45 62° ENE 21:52:54 47° ESE
Cosmos 1933 3.4 21:48:41 10° NNW 21:52:45 75° W 21:53:35 53° SSW
Meteor 1-26 Rocket 4.3 21:48:59 10° N 21:55:02 84° E 21:57:21 39° SSE
BREEZE-M DEB (TANK) 4.2 21:53:04 10° WNW 21:57:10 81° SSW 22:04:29 25° SE
ISS -2.3 21:55:00 10° NW 21:58:06 32° NNE 21:58:48 29° NE
Cosmos 1697 Rocket 4.4 21:56:27 10° NW 22:00:56 25° WSW 22:04:15 15° SW
Cosmos 923 Rocket 4.0 22:02:24 45° S 22:03:57 69° ESE 22:09:17 10° NNE
Cosmos 2082 Rocket 3.7 22:02:27 10° WSW 22:07:37 36° WNW 22:12:49 10° N
Cosmos 371 Rocket 3.8 22:03:13 10° NNW 22:07:52 50° WSW 22:09:09 39° SSW
Cosmos 2278 4.2 22:03:13 10° NW 22:08:41 51° WSW 22:10:39 35° SSW
Terra 2.0 22:08:03 45° SSW 22:09:20 64° WSW 22:14:05 10° NNW
USA 276 4.0 22:13:48 10° NW 22:16:31 26° NNE 22:17:00 25° NNE
Cosmos 2056 Rocket 4.3 22:13:10 10° N 22:18:12 39° ENE 22:19:23 34° E
Cosmos 2333 Rocket 4.2 22:14:55 10° N 22:18:45 18° NE 22:21:43 13° E
Cosmos 1515 Rocket 4.3 22:14:53 10° N 22:19:04 40° ENE 22:19:04 40° ENE
Gbstr 26 Del rocket 4.0 22:15:59 10° NW 22:19:36 39° NNE 22:20:51 31° ENE
Cosmos 1862 3.6 22:25:14 56° NE 22:25:14 56° NE 22:28:38 10° NNE
Cosmos 2360 Rocket 3.2 22:20:59 10° N 22:26:10 36° ENE 22:27:48 30° E
ALOS 2 4.3 22:26:42 22° ENE 22:26:57 22° ENE 22:30:18 10° NNE
Cosmos 1766 Rocket 3.8 22:27:28 57° SW 22:28:05 66° W 22:32:28 10° N
Cosmos 1812 3.0 22:30:53 10° N 22:34:14 65° NNW 22:34:14 65° NNW
Cosmos 1782 3.8 22:32:36 10° NNW 22:36:21 39° W 22:36:29 38° W
Cosmos 2112 Rocket 3.9 22:37:57 63° SSW 22:38:50 89° ESE 22:44:10 10° NNE
Cosmos 1371 Rocket 4.1 22:33:54 10° NNW 22:39:15 65° ENE 22:39:57 58° ESE
Cosmos 1680 Rocket 3.6 22:39:43 51° SW 22:41:01 76° WNW 22:46:19 10° NNE
SL-27 R/B 4.5 22:43:08 23° NE 22:43:08 23° NE 22:44:42 10° NNE
Cosmos 1328 Rocket 3.8 22:38:25 10° NNW 22:42:49 62° W 22:42:54 61° W
Cosmos 1980 Rocket 4.0 22:42:53 10° NW 22:46:51 20° W 22:48:34 17° WSW
USA 267 3.8 22:40:55 10° NE 22:47:17 57° NNW 22:53:39 10° WSW
Cosmos 1151 Rocket 4.2 22:50:03 10° NNW 22:53:59 34° W 22:54:11 34° W
IRIDIUM 106 4.5 22:49:48 10° N 22:54:58 58° E 22:55:07 58° E
Cosmos 2322 Rocket 2.0 22:49:20 10° NNW 22:54:59 82° WSW 22:55:35 71° S
ATLAS 3B R/B 3.6 22:50:00 10° NW 22:56:32 39° WSW 22:58:17 34° SW
Cosmos 2315 Rocket 4.1 22:55:43 10° N 23:01:58 60° E 23:03:02 53° ESE
Meteor 2-6 Rocket 4.4 22:58:02 10° NNW 23:03:21 56° W 23:04:00 53° WSW
Cosmos 1500 Rocket 3.9 23:14:13 64° NNW 23:14:13 64° NNW 23:18:03 10° N
Cosmos 2237 4.1 23:08:22 10° NNW 23:14:06 77° WSW 23:14:27 74° SSW
Meteor 1-27 Rocket 3.5 23:09:15 10° N 23:14:53 83° E 23:15:18 76° SE
COSMOS 2428 4.0 23:11:33 10° N 23:16:36 31° NE 23:18:24 26° E
SL-16 R/B 2.9 23:14:29 10° NW 23:19:44 39° WSW 23:19:59 39° WSW
Cosmos 1655 Rocket 4.3 23:18:09 46° SW 23:19:49 61° W 23:26:09 10° N
USA 234 3.1 23:19:00 60° SSE 23:20:16 76° SW 23:26:51 10° NW
Cosmos 1624 Rocket 4.2 23:16:19 10° NNW 23:21:19 60° W 23:21:19 60° W
Cosmos 2219 Rocket 3.0 23:18:06 10° NNW 23:23:23 41° ENE 23:24:30 37° E
Cosmos 292 Rocket 3.9 23:18:39 10° NNW 23:23:00 73° N 23:23:00 73° N
Spot 4 4.2 23:25:02 56° W 23:25:02 56° W 23:29:28 10° NNW
Cosmos 2266 Rocket 4.2 23:23:51 50° SW 23:25:07 61° W 23:31:15 10° N
Cosmos 2228 Rocket 3.5 23:26:31 10° N 23:30:09 60° NNW 23:30:09 60° NNW
Cosmos 1743 Rocket 4.2 23:32:04 50° WNW 23:32:04 50° WNW 23:36:02 10° N
Thor Agena Rocket 4.4 23:28:57 10° NNE 23:32:59 37° E 23:32:59 37° E
COSMOS 2455 2.9 23:35:08 60° ESE 23:35:08 60° ESE 23:40:53 10° NE
Cosmos 1420 Rocket 4.1 23:31:26 10° NNW 23:36:32 67° W 23:36:32 67° W
Nimbus 7 Rocket 4.3 23:33:46 10° NNE 23:39:49 74° ESE 23:40:13 71° SE
Meteor 1-20 Rocket 4.0 23:47:32 87° SSE 23:47:37 89° E 23:53:16 10° N
Cosmos 1666 Rocket 4.4 23:49:24 45° NE 23:49:24 45° NE 23:52:43 10° NNE
Cosmos 1633 Rocket 4.1 23:49:55 39° NE 23:49:55 39° NE 23:53:04 10° NNE
Cosmos 1452 Rocket 3.5 23:46:02 10° NNW 23:51:09 81° NNE 23:51:09 81° NNE
Cosmos 972 Rocket 4.1 23:51:10 70° W 23:51:26 71° WNW 23:56:37 10° NNE
Sich 1 3.7 23:54:53 53° NNW 23:54:53 53° NNW 23:58:24 10° N
